Wetbulb
50.36 48.86 48.43 50.22 52.64 53.17 50.97 49.31 48.14 46.62 45.64 44.65 43.64 43.63 43.13 43.56 45.12 46.21 47.99 56.25 61.12 66.02 68.93 69.45 69.15 69.09 69.35 69.23 69.22 69.30 69.33 68.90 68.56 68.50 68.92 68.63 68.62 68.75 68.78 68.52 68.19 67.71 67.79
46.58 46.07 47.34 49.77 51.71 52.97 49.65 48.46 46.74 45.42 44.18 44.06 42.92 42.61 42.17 42.92 43.12 44.22 45.73 47.03 55.49 60.33 64.56 67.84 68.58 68.91 68.91 68.98 68.77 68.28 67.92 67.69 68.07 68.20 68.19 68.27 68.29 68.38 68.62 68.24 68.29 68.20 67.94
45.51 44.44 46.58 48.15 49.14 50.57 47.03 46.59 45.74 45.07 43.70 43.13 41.80 41.61 41.75 42.40 42.88 43.25 44.06 45.13 45.93 52.02 58.78 62.74 65.88 67.40 68.89 69.14 68.92 68.50 68.05 67.68 67.42 67.40 67.52 67.55 67.42 67.85 67.73 68.00 68.23 68.00 67.61
43.66 42.28 45.27 47.83 48.75 49.76 49.83 47.23 45.89 44.06 43.31 41.69 40.74 40.48 40.56 41.28 42.56 44.23 44.21 44.31 44.43 44.70 49.07 56.46 59.77 62.99 65.70 67.67 68.29 68.00 67.49 67.04 66.86 66.64 66.54 66.60 66.67 67.11 67.48 67.35 67.50 67.33 67.30
42.98 41.64 42.75 43.98 46.67 46.55 47.28 47.98 45.56 43.67 41.40 41.14 41.03 40.62 39.37 38.34 40.59 43.13 40.70 43.82 44.66 44.05 44.23 49.61 53.62 56.51 59.80 63.71 66.07 66.59 66.36 65.53 65.11 64.82 64.79 64.79 64.85 65.16 65.16 65.21 65.82 66.09 66.14
42.42 41.68 41.60 40.62 40.98 42.83 41.93 41.61 42.59 42.58 41.84 41.37 41.12 39.87 37.50 37.87 38.31 38.46 39.03 40.83 40.46 41.01 43.76 44.92 46.26 49.59 54.90 57.88 61.13 64.30 64.79 64.42 63.93 63.62 63.36 63.07 63.06 63.08 63.16 63.07 62.83 62.76 63.08
42.63 40.34 41.04 39.81 38.96 37.78 38.40 38.15 38.85 38.12 37.23 39.17 36.76 36.54 37.85 38.69 36.16 35.46 36.37 36.87 37.73 38.56 39.84 41.13 44.25 46.16 47.50 52.71 55.22 58.06 62.56 63.05 62.32 61.70 61.57 61.29 61.20 61.54 61.68 61.68 61.30 60.91 61.03
41.26 40.64 38.64 37.40 36.97 36.90 36.30 38.11 37.17 32.57 31.59 32.88 35.95 32.87 29.79 33.31 36.42 36.96 34.68 36.32 35.15 36.48 37.95 39.66 40.39 42.72 43.46 44.85 48.78 53.26 56.47 59.64 60.41 59.95 58.89 58.19 58.37 59.15 59.56 59.59 59.09 58.63 58.17
39.70 40.61 38.11 36.61 35.52 35.72 35.09 36.63 36.94 35.90 31.85 32.00 32.84 35.77 33.02 30.38 32.21 33.47 33.14 33.57 34.18 34.06 34.73 36.59 38.38 40.15 41.63 42.16 44.65 47.05 52.57 55.22 58.47 58.30 57.33 56.22 55.75 55.68 56.03 56.42 56.83 56.46 55.73
38.96 38.59 38.67 36.75 35.96 34.64 33.92 34.97 36.95 36.29 35.24 32.28 34.29 34.62 35.29 34.36 33.19 29.43 31.68 31.91 33.88 34.50 33.76 34.98 35.41 38.07 39.27 40.00 43.57 48.25 50.30 52.84 54.77 55.21 54.82 54.03 53.41 53.68 54.19 53.91 53.69 53.27 52.95
36.77 38.25 38.38 37.66 34.95 34.09 33.14 32.68 33.54 35.50 35.10 33.89 32.74 33.26 32.66 33.06 35.11 33.50 28.76 28.30 31.19 32.70 33.96 33.95 34.58 35.00 37.14 37.82 38.31 43.34 47.53 49.76 51.04 51.50 51.81 50.92 50.95 51.50 51.98 51.47 51.63 51.54 51.39
34.35 35.19 36.20 36.00 34.58 33.51 32.67 32.34 33.03 35.15 33.88 34.45 34.00 34.64 34.61 34.06 33.27 33.84 31.52 30.31 27.89 29.33 31.94 33.20 33.85 34.23 34.14 34.01 39.26 41.79 43.30 45.41 47.96 48.91 49.83 49.10 48.02 48.33 49.00 49.67 49.67 49.45 49.33
31.58 33.20 34.36 33.95 33.94 32.67 32.73 32.22 31.56 31.80 34.47 34.11 34.14 34.00 35.11 34.67 35.49 34.61 33.85 31.38 29.33 30.54 29.43 31.19 32.48 33.62 36.00 32.82 34.11 38.29 40.31 41.99 43.55 45.16 46.68 46.30 45.31 45.43 46.29 47.10 47.33 47.25 47.19
31.27 32.64 33.07 33.38 33.66 34.22 32.63 32.09 30.99 31.04 33.50 33.00 32.91 33.25 32.90 33.86 34.62 33.86 33.11 31.48 28.16 28.46 28.22 27.84 30.59 31.53 32.99 32.80 35.70 37.62 34.46 39.15 40.55 41.63 42.49 42.84 42.86 43.40 43.98 44.54 44.91 45.01 45.18
31.84 32.19 32.63 32.58 32.87 33.17 32.66 31.43 31.04 31.31 30.60 30.60 31.95 32.26 32.49 33.39 33.55 33.62 33.54 32.65 28.25 23.60 24.15 26.66 26.79 29.86 31.19 32.14 33.91 31.58 31.16 37.17 38.30 39.66 40.18 40.55 40.88 41.46 42.28 42.76 43.27 43.41 43.55
31.42 31.45 31.52 31.90 31.82 32.31 32.41 31.28 30.25 30.83 30.00 29.54 30.75 31.56 31.47 31.73 31.61 31.52 30.45 29.13 28.12 27.37 23.51 26.83 27.25 28.66 30.22 33.45 33.27 31.03 31.92 35.90 36.83 38.31 39.79 39.94 40.28 40.90 41.53 41.70 42.49 42.45 42.71
31.12 30.97 31.09 30.58 31.28 31.37 31.34 30.43 29.34 29.12 28.66 28.64 28.61 28.67 29.02 29.83 28.54 28.52 28.39 27.98 26.90 27.43 24.37 25.77 27.83 28.58 28.18 28.47 30.01 30.31 31.25 29.73 30.75 36.49 37.61 38.53 38.99 39.35 39.71 41.40 41.58 41.77 41.77
30.87 30.26 30.52 29.95 29.40 29.35 29.02 28.16 28.09 28.14 27.47 26.84 27.11 26.89 27.53 30.03 26.59 27.06 26.56 25.72 25.43 26.13 26.77 24.32 26.53 26.93 27.09 28.05 28.02 27.76 31.17 32.95 30.38 35.17 36.30 36.91 37.40 37.97 38.98 39.71 40.26 40.18 40.57
30.19 30.06 29.56 28.86 28.78 28.49 28.31 28.42 28.94 28.58 28.42 28.30 28.08 27.75 28.04 28.15 26.62 26.69 26.84 26.21 26.50 28.97 26.37 25.60 24.46 26.08 26.42 27.48 26.79 27.86 28.56 28.47 32.73 35.54 36.08 36.25 36.75 37.45 37.71 37.60 37.66 37.99 37.97
28.75 28.48 29.17 29.23 28.79 28.34 27.76 28.18 28.04 28.03 28.17 28.02 28.12 28.34 28.48 28.07 27.27 26.87 27.35 26.44 27.39 26.16 25.24 24.54 24.62 24.58 25.17 27.51 26.61 25.46 25.61 27.69 28.17 33.10 34.50 35.17 35.37 35.80 36.60 36.98 36.69 36.50 36.30
27.86 28.67 28.59 28.60 28.37 27.63 28.25 26.36 26.48 26.16 25.80 26.06 26.38 27.23 27.59 30.25 31.93 31.64 29.05 28.05 27.37 25.90 25.45 24.76 24.23 24.28 24.82 25.29 25.13 26.21 26.33 26.81 27.70 28.94 28.19 28.92 28.94 29.13 30.34 34.52 35.51 36.27 36.34
28.33 27.42 26.87 26.78 25.72 27.58 33.11 32.59 29.32 26.49 26.91 25.86 24.96 26.07 27.79 30.52 30.98 32.54 32.63 32.80 30.99 25.57 25.67 25.65 25.70 24.83 24.83 25.93 26.78 26.62 26.43 25.46 23.59 27.90 26.36 26.65 27.81 27.38 28.74 29.60 35.83 35.35 35.81
27.20 25.85 24.96 24.77 24.37 27.18 33.55 33.10 32.03 27.53 26.99 25.48 25.35 25.34 26.64 29.30 29.48 27.65 29.72 29.90 29.77 31.38 30.98 25.61 22.87 24.04 24.17 26.83 26.25 25.75 25.58 25.23 24.66 27.15 25.82 25.00 27.21 26.35 29.21 32.53 36.07 36.25 36.32
25.49 25.54 24.84 24.30 25.23 27.91 33.47 33.18 32.10 27.51 26.20 25.52 25.74 25.52 25.07 25.30 26.60 26.84 26.59 26.19 26.43 26.94 27.34 28.36 25.61 26.03 27.50 28.13 27.47 27.45 26.25 25.92 26.69 27.46 27.29 23.45 26.12 25.95 27.97 29.10 35.36 36.00 35.90
25.02 22.13 24.54 22.36 20.30 22.89 33.58 33.34 30.38 26.41 26.32 25.19 25.79 25.37 25.08 24.50 29.22 29.76 26.71 23.55 25.54 26.31 31.04 32.59 32.72 32.94 33.13 33.39 32.46 27.26 24.58 21.52 24.05 25.99 27.91 25.76 26.74 26.53 27.42 26.93 28.39 34.62 35.14
26.05 26.12 25.75 19.67 27.14 20.97 33.75 33.71 30.01 26.13 22.94 25.84 24.77 24.87 29.83 26.24 29.58 30.35 25.79 21.52 19.99 24.91 26.04 25.85 26.16 27.88 29.67 28.17 32.50 28.55 25.11 21.90 23.60 22.29 27.23 25.34 25.61 26.60 24.30 26.91 26.87 26.57 26.76
MSLP
1022.08 1022.69 1023.35 1023.82 1024.18 1024.92 1025.56 1026.18 1026.70 1027.09 1027.45 1027.95 1028.45 1028.37 1028.65 1028.68 1028.89 1029.05 1029.01 1028.39 1027.58 1026.88 1026.26 1025.93 1025.73 1025.76 1025.72 1025.91 1026.17 1026.22 1026.33 1026.58 1026.67 1026.80 1026.98 1027.17 1027.29 1027.35 1027.39 1027.49 1027.60 1027.68 1027.69
1022.57 1023.16 1023.80 1024.32 1024.66 1025.25 1026.09 1026.66 1027.28 1027.72 1028.14 1028.48 1028.75 1029.03 1029.27 1029.48 1029.64 1029.51 1029.69 1029.79 1029.15 1028.50 1027.56 1026.90 1026.52 1026.19 1026.22 1026.29 1026.47 1026.62 1026.81 1027.12 1027.09 1027.20 1027.32 1027.51 1027.61 1027.70 1027.75 1027.86 1027.85 1027.91 1027.95
1022.96 1023.58 1024.14 1024.77 1025.23 1025.77 1026.57 1027.18 1027.81 1028.30 1028.73 1029.09 1029.35 1029.75 1029.95 1029.98 1030.07 1030.24 1030.31 1030.45 1030.48 1029.95 1029.14 1028.53 1027.66 1027.16 1026.84 1026.41 1026.86 1026.96 1027.18 1027.32 1027.57 1027.64 1027.77 1027.78 1027.94 1027.93 1028.06 1028.10 1028.08 1028.22 1028.23
1023.31 1024.12 1024.54 1024.97 1025.49 1025.98 1026.62 1027.47 1028.14 1028.80 1029.38 1029.95 1030.36 1030.70 1030.81 1030.69 1030.54 1030.43 1030.71 1030.83 1031.01 1030.85 1030.60 1029.96 1029.34 1028.64 1028.09 1027.75 1027.55 1027.48 1027.77 1028.05 1028.17 1028.30 1028.46 1028.44 1028.48 1028.49 1028.32 1028.30 1028.37 1028.49 1028.58
1023.92 1024.65 1025.29 1025.65 1025.76 1026.33 1026.92 1027.61 1028.54 1028.80 1029.67 1030.29 1030.71 1031.06 1031.39 1031.45 1031.06 1030.88 1031.32 1031.32 1031.35 1031.27 1031.20 1031.12 1030.67 1030.30 1029.69 1029.10 1028.75 1028.75 1028.80 1028.97 1029.09 1029.38 1029.31 1029.18 1029.28 1029.35 1029.30 1029.08 1029.08 1029.12 1029.22
1024.42 1024.81 1025.86 1026.29 1026.58 1026.92 1027.71 1028.22 1028.77 1029.37 1029.84 1030.29 1030.98 1031.58 1031.91 1032.02 1031.95 1031.94 1032.08 1032.07 1032.06 1032.10 1031.81 1031.63 1031.52 1031.42 1031.13 1030.55 1030.19 1029.86 1029.72 1029.75 1029.90 1030.02 1029.95 1030.06 1030.06 1030.11 1030.07 1030.12 1030.05 1030.15 1030.21
1024.71 1025.61 1026.10 1026.53 1027.14 1027.77 1028.49 1028.80 1029.20 1029.92 1030.76 1030.98 1031.36 1032.20 1032.42 1032.38 1032.62 1032.68 1032.69 1032.90 1032.92 1032.91 1032.63 1032.50 1032.20 1032.26 1032.09 1032.06 1031.79 1031.20 1030.65 1030.67 1030.80 1030.84 1030.74 1030.92 1030.74 1030.86 1030.81 1030.89 1030.87 1030.87 1031.05
1025.35 1025.92 1026.42 1027.04 1027.46 1027.79 1028.75 1029.25 1029.55 1030.58 1031.66 1031.96 1031.95 1032.34 1033.05 1033.28 1033.24 1033.30 1033.46 1033.40 1033.70 1033.58 1033.50 1033.36 1033.21 1033.16 1033.21 1033.24 1033.00 1032.34 1031.86 1031.53 1031.52 1031.67 1031.69 1031.84 1031.88 1031.60 1031.67 1031.43 1031.66 1031.66 1031.87
1025.91 1026.10 1026.46 1027.49 1028.01 1028.07 1028.64 1029.23 1029.63 1030.16 1031.46 1032.32 1032.01 1032.18 1032.67 1033.11 1033.73 1034.20 1034.39 1034.40 1034.35 1034.37 1034.37 1034.22 1034.11 1034.13 1034.15 1034.05 1033.75 1033.46 1032.83 1032.36 1032.25 1032.26 1032.32 1032.57 1032.72 1032.47 1032.41 1032.30 1032.28 1032.45 1032.53
1026.60 1026.62 1026.83 1027.94 1028.21 1028.83 1029.04 1029.25 1029.55 1030.04 1030.80 1031.91 1032.34 1032.18 1032.24 1032.40 1033.09 1034.54 1035.01 1035.09 1034.97 1034.88 1035.05 1034.97 1034.92 1034.83 1034.83 1034.82 1034.62 1034.11 1033.61 1033.17 1033.17 1033.04 1033.03 1033.40 1033.51 1033.26 1033.02 1033.01 1033.02 1033.17 1032.96
1027.45 1026.99 1027.65 1028.04 1028.66 1029.32 1029.75 1029.97 1029.87 1030.25 1030.74 1031.61 1032.14 1032.52 1032.46 1032.48 1032.54 1033.32 1034.94 1035.61 1035.65 1035.63 1035.59 1035.64 1035.58 1035.65 1035.63 1035.59 1035.51 1035.26 1034.89 1034.27 1033.88 1033.78 1033.72 1034.12 1034.24 1033.97 1033.79 1033.75 1033.60 1033.41 1033.45
1027.75 1027.98 1028.37 1028.61 1029.05 1029.74 1030.23 1030.53 1030.64 1030.47 1030.83 1031.57 1032.04 1032.32 1032.52 1032.72 1032.94 1033.11 1034.23 1035.24 1035.87 1036.19 1036.05 1036.07 1036.08 1036.14 1036.28 1036.34 1036.19 1036.03 1035.75 1035.40 1034.97 1034.60 1034.54 1034.87 1035.00 1034.80 1034.54 1034.21 1033.99 1033.98 1034.05
1028.27 1028.33 1029.00 1029.24 1029.59 1029.97 1030.51 1030.84 1031.33 1031.33 1031.34 1031.73 1032.06 1032.64 1032.84 1032.98 1032.99 1032.90 1033.66 1034.64 1035.65 1036.34 1036.61 1036.68 1036.57 1036.49 1036.53 1036.79 1036.77 1036.61 1036.43 1036.24 1036.00 1035.72 1035.50 1035.54 1035.53 1035.31 1035.07 1034.85 1034.65 1034.62 1034.60
1028.67 1029.07 1029.42 1029.51 1029.83 1030.08 1030.76 1031.24 1031.62 1031.90 1031.92 1032.09 1032.36 1032.72 1033.24 1033.41 1033.45 1033.40 1033.76 1034.30 1035.69 1036.24 1036.69 1036.95 1037.06 1037.00 1036.97 1037.04 1036.86 1036.83 1036.92 1036.72 1036.50 1036.30 1036.16 1036.07 1035.95 1035.76 1035.57 1035.42 1035.31 1035.20 1035.10
1028.76 1028.90 1029.66 1029.70 1030.04 1030.43 1031.09 1031.51 1031.84 1032.04 1032.36 1032.77 1033.01 1033.21 1033.53 1033.84 1033.99 1034.04 1034.18 1034.38 1035.08 1036.22 1036.97 1037.13 1037.32 1037.17 1037.15 1037.24 1037.13 1037.14 1037.14 1036.92 1036.79 1036.65 1036.50 1036.38 1036.25 1036.16 1036.04 1035.88 1035.71 1035.58 1035.48
1029.04 1029.29 1029.84 1030.12 1030.59 1030.96 1031.35 1031.83 1032.20 1032.37 1032.79 1033.20 1033.52 1033.66 1034.02 1034.36 1034.65 1034.60 1034.76 1035.08 1035.06 1035.55 1036.77 1037.03 1037.22 1037.35 1037.26 1037.16 1037.18 1037.19 1037.12 1037.02 1036.94 1036.84 1036.72 1036.59 1036.47 1036.33 1036.17 1036.05 1035.90 1035.85 1035.84
1029.61 1029.73 1030.01 1030.51 1030.88 1031.20 1031.71 1032.14 1032.66 1032.84 1033.28 1033.57 1034.02 1034.35 1034.67 1034.92 1035.22 1035.34 1035.52 1035.55 1035.54 1035.57 1036.51 1037.10 1037.14 1037.29 1037.43 1037.51 1037.48 1037.35 1037.16 1037.10 1037.09 1036.93 1036.87 1036.80 1036.70 1036.55 1036.38 1036.14 1036.11 1036.07 1036.03
1029.65 1030.03 1030.36 1030.79 1031.24 1031.77 1032.25 1032.51 1032.97 1033.37 1033.74 1034.12 1034.50 1034.87 1035.16 1035.20 1035.72 1035.86 1036.05 1036.14 1036.18 1036.07 1036.36 1037.18 1037.33 1037.42 1037.50 1037.46 1037.56 1037.57 1037.34 1037.06 1037.08 1036.88 1036.86 1036.83 1036.74 1036.69 1036.54 1036.38 1036.28 1036.26 1036.25
1029.80 1030.35 1030.71 1031.25 1031.83 1032.32 1032.64 1032.99 1033.29 1033.62 1034.00 1034.39 1034.75 1035.02 1035.38 1035.64 1035.92 1036.14 1036.30 1036.47 1036.59 1036.64 1036.63 1037.11 1037.51 1037.57 1037.70 1037.61 1037.74 1037.64 1037.43 1037.34 1037.04 1036.79 1036.66 1036.72 1036.66 1036.71 1036.73 1036.56 1036.45 1036.37 1036.33
1030.29 1030.83 1031.22 1031.71 1032.20 1032.59 1033.08 1033.33 1033.73 1034.09 1034.41 1034.80 1035.07 1035.28 1035.48 1035.74 1036.02 1036.27 1036.47 1036.74 1036.91 1037.05 1037.17 1037.42 1037.63 1037.77 1037.78 1037.81 1037.88 1037.91 1037.84 1037.74 1037.57 1036.97 1036.74 1036.67 1036.74 1036.67 1036.68 1036.49 1036.35 1036.35 1036.34
1030.91 1031.21 1031.71 1032.13 1032.53 1032.96 1033.27 1033.83 1034.24 1034.66 1035.04 1035.37 1035.64 1035.81 1036.03 1036.00 1035.99 1036.13 1036.63 1037.08 1037.19 1037.31 1037.53 1037.79 1037.96 1037.95 1037.96 1037.98 1038.03 1037.96 1037.91 1037.83 1037.56 1037.22 1037.16 1037.04 1037.01 1036.90 1036.74 1036.47 1036.20 1036.01 1036.05
1031.43 1031.87 1032.27 1032.59 1033.01 1033.07 1033.15 1033.61 1034.40 1035.14 1035.50 1035.92 1036.17 1036.37 1036.39 1036.46 1036.54 1036.54 1036.65 1036.82 1037.30 1037.55 1037.84 1038.06 1038.22 1038.22 1038.17 1038.12 1037.99 1038.05 1038.00 1037.96 1037.93 1037.40 1037.41 1037.19 1037.00 1036.97 1036.77 1036.43 1036.01 1035.93 1035.91
1031.94 1032.40 1032.89 1033.20 1033.45 1033.46 1033.39 1033.91 1034.51 1035.31 1035.73 1036.14 1036.40 1036.61 1036.58 1036.71 1036.90 1037.15 1037.05 1037.18 1037.32 1037.28 1037.45 1038.07 1038.35 1038.39 1038.38 1038.16 1038.27 1038.07 1037.98 1038.05 1037.99 1037.60 1037.57 1037.27 1037.01 1036.94 1036.53 1036.14 1035.71 1035.49 1035.49
1032.36 1032.85 1033.32 1033.63 1033.87 1033.76 1033.66 1034.11 1034.74 1035.54 1035.98 1036.17 1036.46 1036.77 1036.97 1037.14 1037.21 1037.32 1037.43 1037.57 1037.67 1037.73 1037.72 1037.73 1038.02 1038.21 1038.18 1038.04 1038.07 1037.86 1037.97 1038.01 1037.78 1037.54 1037.38 1037.23 1036.83 1036.62 1036.30 1036.03 1035.64 1035.26 1035.14
1032.78 1033.26 1033.73 1034.16 1034.33 1034.39 1033.75 1034.15 1035.05 1035.82 1036.22 1036.42 1036.58 1036.83 1037.06 1037.14 1036.89 1037.11 1037.60 1037.79 1037.85 1037.82 1037.48 1037.34 1037.26 1037.25 1037.30 1037.31 1037.36 1037.80 1037.85 1037.99 1037.63 1037.26 1037.01 1036.90 1036.61 1036.23 1036.02 1035.92 1035.52 1035.11 1034.90
1033.01 1033.56 1034.05 1034.43 1033.96 1034.63 1033.82 1034.32 1035.21 1036.04 1036.45 1036.62 1036.70 1036.82 1036.56 1037.06 1036.87 1036.82 1037.52 1037.82 1037.91 1037.73 1037.74 1037.59 1037.40 1037.20 1037.10 1037.17 1036.85 1037.01 1037.54 1037.48 1037.42 1037.06 1036.67 1036.76 1036.53 1036.42 1036.12 1035.45 1035.15 1035.09 1035.05
Wind_Speed
7 6 5 5 5 8 7 7 7 8 10 10 9 10 10 10 10 6 6 26 29 28 25 24 11 7 10 12 11 12 13 11 11 11 11 10 10 10 9 9 9 9 8
5 6 6 5 5 8 7 7 7 7 8 7 10 10 10 9 9 10 7 9 25 28 29 27 28 15 11 12 16 16 16 14 12 12 12 11 9 9 9 8 8 7 6
8 7 6 6 5 9 11 8 8 7 7 7 10 8 7 8 8 9 8 7 8 21 28 28 29 27 24 14 21 22 22 18 15 13 12 12 11 11 9 9 9 9 8
9 6 7 7 6 6 8 7 6 7 7 6 6 6 5 6 7 9 8 7 7 7 14 26 28 29 27 27 25 25 25 25 24 23 23 23 23 23 18 13 13 12 14
9 7 6 5 7 6 6 8 5 5 7 7 7 6 5 5 6 7 8 9 9 8 6 16 23 26 26 26 25 24 25 24 23 23 23 24 24 23 23 26 25 24 23
9 9 6 6 6 7 6 7 8 5 5 6 8 7 5 4 5 5 6 6 7 8 7 9 8 11 24 25 24 21 20 22 22 22 23 23 23 22 22 23 23 23 23
7 7 7 7 6 8 6 6 6 9 5 4 4 4 5 7 7 5 5 5 6 6 8 7 7 5 8 21 23 20 20 20 21 22 23 21 22 21 21 21 21 22 21
7 6 6 6 6 9 9 6 4 4 3 4 2 3 3 3 5 6 5 5 7 5 7 8 8 10 8 7 14 21 16 15 17 18 20 20 18 18 18 19 18 18 18
6 7 8 6 5 5 7 6 6 6 4 2 5 2 3 3 3 3 6 5 6 5 5 6 7 7 8 7 10 12 17 12 17 16 17 18 16 15 15 15 15 15 14
7 7 9 7 6 4 6 6 5 5 5 4 2 3 3 3 3 2 3 4 5 6 6 5 5 8 8 7 13 17 16 13 15 14 15 16 14 12 13 12 12 12 13
7 9 7 8 7 5 6 5 7 6 4 4 3 1 3 3 2 4 3 1 4 4 4 4 5 5 7 6 6 11 17 14 12 11 11 12 13 13 12 10 12 12 13
6 8 7 7 7 6 6 5 5 6 7 5 4 3 2 3 1 3 4 3 4 2 3 4 4 4 4 5 8 13 14 14 13 10 10 12 11 11 11 11 11 11 11
5 7 6 7 6 6 6 6 6 6 5 5 6 4 3 3 0 2 4 3 3 1 2 3 3 4 5 4 4 7 12 12 11 10 10 10 10 10 10 10 10 9 9
6 7 7 8 8 8 6 6 5 5 5 5 7 6 4 3 4 3 2 5 3 2 2 3 3 3 4 3 6 10 6 10 10 9 9 9 9 10 9 9 9 8 8
7 9 8 9 8 8 7 6 5 6 6 6 6 6 5 4 4 4 4 3 4 4 2 2 2 1 2 3 4 4 4 6 8 8 8 8 8 8 8 8 8 7 6
9 10 9 9 8 8 7 6 5 6 7 5 5 7 6 4 4 4 4 3 3 3 4 1 1 2 2 2 2 3 3 6 5 7 7 7 7 8 8 7 7 6 5
8 9 9 8 8 8 7 7 7 7 8 7 7 6 7 6 4 4 4 4 4 3 4 2 2 2 2 3 4 4 2 2 2 5 7 8 7 7 7 6 6 6 6
8 8 8 8 7 7 7 7 7 7 7 7 7 7 6 5 6 5 4 5 5 4 4 3 1 1 2 2 1 2 3 3 2 3 6 7 7 8 7 7 6 7 7
8 8 8 9 8 7 7 7 7 7 7 7 6 6 6 6 5 4 5 5 4 4 4 4 2 1 1 2 2 3 2 2 3 3 5 7 6 6 6 8 8 7 8
8 8 8 9 7 7 7 6 7 7 7 7 6 6 6 6 6 5 5 4 4 4 3 3 2 1 1 1 1 0 3 2 3 3 4 5 4 6 8 9 7 8 8
7 8 9 8 8 7 5 6 7 7 7 6 6 6 6 7 9 7 4 4 4 3 3 2 1 1 1 1 0 1 1 2 3 2 1 3 2 3 4 8 7 7 7
8 7 7 7 7 5 15 14 9 6 6 5 5 5 5 7 6 7 6 5 4 2 2 2 1 2 2 2 2 1 1 2 2 2 1 3 2 3 4 4 11 5 8
7 7 6 6 6 5 14 14 14 5 5 5 5 5 3 4 4 4 3 3 2 1 1 3 2 1 1 2 3 3 2 2 2 4 3 4 1 4 4 6 13 10 12
7 6 5 5 5 4 13 13 13 6 5 5 5 4 3 4 3 4 2 2 2 3 3 2 2 4 4 5 4 3 3 3 4 4 3 5 3 4 4 4 13 13 12
6 4 4 5 5 0 14 13 9 4 5 5 4 3 3 2 3 3 2 1 3 4 5 9 9 10 10 12 10 1 3 2 6 5 3 3 4 3 3 4 5 13 16
6 5 5 4 6 3 12 12 8 3 3 3 3 3 5 4 5 5 4 3 3 5 4 5 5 5 7 6 12 5 3 4 4 5 4 2 2 2 3 3 2 1 2
Wind_Direction
101 99 90 83 83 96 93 87 83 78 73 71 70 68 60 50 46 40 38 38 38 38 49 53 53 95 109 103 95 90 93 92 91 91 82 79 77 74 70 93 89 83 66
90 95 94 85 70 102 95 89 88 88 85 83 75 67 68 64 55 55 48 35 40 40 43 46 50 56 79 95 88 77 76 74 73 68 67 66 59 59 62 67 68 75 63
98 103 102 86 72 94 97 90 86 82 78 71 73 66 61 62 66 60 57 48 33 36 42 42 47 51 55 98 91 83 84 81 74 79 79 73 62 50 60 56 57 58 52
88 80 103 107 94 83 110 99 99 90 80 72 71 58 53 61 65 67 62 57 52 33 36 42 44 44 48 61 68 74 73 73 72 71 69 68 65 61 61 62 64 70 66
100 96 84 90 98 87 82 108 91 91 95 88 79 70 52 40 39 67 59 53 51 44 42 40 45 44 44 47 58 67 73 73 76 73 72 69 66 66 65 64 63 64 64
100 102 100 87 84 96 83 89 99 83 94 95 83 71 61 55 50 52 56 52 48 35 37 40 38 40 46 45 43 53 74 77 75 74 72 68 67 65 63 62 64 61 57
83 97 116 106 98 100 96 100 100 91 54 59 90 55 48 51 43 41 55 55 49 39 41 31 37 34 38 45 38 35 50 75 72 69 66 61 64 63 63 62 60 58 54
82 107 102 89 116 117 113 109 83 101 80 22 122 119 108 17 40 35 33 54 52 45 45 40 37 47 39 33 30 34 37 61 71 70 66 57 50 51 56 59 54 54 50
80 91 96 94 85 112 122 119 120 118 126 47 62 120 125 146 127 14 34 42 57 51 44 44 37 50 57 43 28 21 28 44 66 65 60 52 40 44 45 42 46 47 44
68 82 86 89 83 69 98 121 108 104 108 122 104 37 74 114 130 106 27 33 44 46 42 41 44 47 46 47 34 34 31 44 61 57 53 51 35 36 40 44 46 40 38
53 66 84 98 81 81 69 82 106 105 103 117 111 133 60 39 63 135 147 89 36 41 42 46 51 60 56 47 33 40 38 38 54 61 56 45 39 34 39 43 42 39 39
80 76 74 79 96 89 86 74 67 94 104 100 108 75 100 103 61 94 110 126 136 37 61 50 52 62 70 53 53 47 47 41 33 43 49 47 40 38 35 37 40 38 35
84 81 98 94 94 102 98 90 74 79 90 108 101 82 70 55 314 61 112 126 124 149 66 33 43 47 80 71 37 71 49 45 41 39 37 41 36 34 32 30 33 32 28
116 105 97 101 99 96 88 97 103 91 78 76 95 88 76 51 40 61 128 125 97 95 89 158 19 57 62 73 37 52 42 38 36 31 25 25 24 23 22 19 18 20 21
109 102 101 100 97 95 100 99 92 93 88 79 78 85 77 60 46 43 53 74 141 137 136 227 116 48 77 87 43 42 55 28 33 29 24 19 16 11 9 6 4 3 18
113 108 104 101 101 100 94 91 91 89 92 86 80 83 72 60 56 48 53 59 58 123 119 152 67 141 40 97 74 43 31 22 36 28 23 17 12 10 6 359 5 16 19
121 120 116 111 110 107 101 96 90 90 88 84 77 77 75 70 57 49 46 46 45 57 110 31 100 94 64 36 15 9 9 0 13 25 9 359 355 353 351 5 12 7 358
118 115 113 104 96 91 95 100 103 96 96 92 93 85 82 79 69 66 61 54 48 30 103 121 126 70 87 76 2 348 342 352 356 331 343 336 336 339 339 347 350 341 358
109 105 102 103 103 103 98 93 101 106 103 104 107 103 105 95 81 77 76 68 52 43 49 110 109 61 80 63 4 341 291 311 304 296 336 340 338 334 336 330 328 328 330
109 106 103 106 102 100 99 98 95 94 94 91 91 87 85 93 97 89 79 77 74 69 50 75 84 94 112 220 109 262 351 353 319 325 335 326 297 306 306 307 302 305 304
102 109 113 106 105 106 109 108 107 104 101 96 91 88 82 86 88 77 90 56 56 64 62 61 54 78 329 6 94 279 1 318 310 281 1 332 346 325 305 314 305 292 291
101 99 99 108 111 116 133 127 113 105 103 108 106 98 98 91 87 89 87 89 102 98 55 61 6 17 345 9 1 351 309 349 326 323 19 290 332 314 296 281 286 259 296
108 102 100 105 110 118 134 132 126 112 117 117 118 124 147 117 106 111 90 69 20 332 192 169 184 239 297 306 343 329 324 307 271 296 0 299 283 293 292 297 293 288 287
113 115 109 105 113 145 140 136 129 121 122 123 126 128 125 141 150 104 60 25 3 342 308 282 219 256 253 266 259 234 246 270 280 283 269 275 258 251 276 294 296 295 297
112 103 114 110 109 149 153 152 123 123 129 126 121 117 141 145 210 182 140 258 278 285 287 286 269 264 273 279 278 220 269 271 284 276 262 255 268 262 248 269 285 292 290
119 121 118 120 148 100 148 150 140 120 125 155 169 199 213 186 238 226 192 202 247 260 269 290 300 302 304 301 287 258 197 231 265 291 256 262 295 302 312 272 268 259 300